GCHIGCGM

Guest
Details From GCHI - Hierro
To GCGM - La Gomera
Flight Number -
Tags Generated
Created
Modified
Stats Distance 38 nm / 70 km
Max Altitude 0 ft / 0 m
Waypoints 2
Social Downloads 4
Likes 0
Share VATSIM

Download

Looking for another format? Having issues loading an existing format? Contact us
Advertisement - Login to hide

Notes

Generated

Route

GCHI GCGM

ID Type Via Altitude Latitude Longitude Leg Dist Tot Dist Heading (true) Name
O GCHI APT - 0 ft / 0 m 27.81985˚ -17.88997˚ - 0 nm - -
O GCGM APT - 0 ft / 0 m 28.02859˚ -17.22214˚ 37 nm 37 nm 70° / 71° -

Altitude Profile

Advertisement - Login to hide

GCHI

Details ICAO GCHI (VDE)
Name Hierro
Region Canary Islands
Timezone Atlantic/Canary (UTC+1.0)
Stats Elevation 337 ft / 103 m (AMSL)
Location 27.814848° -17.887052°
Runways 1
Magnetic Variation 5.577° W

METAR

GCHI 221400Z 35011KT 320V030 9999 FEW025 SCT035 24/15 Q1018

Decode

TAF

TAF AMD TAF AMD GCHI 221206Z 2212/2309 34014KT 9999 SCT025 TX22/2214Z TN18/2305Z PROB30 TEMPO 2212/2216 08004KT PROB30 TEMPO 2215/2224 DZ

Decode

Departure Runways

ID Width Length Bearing (true) Bearing (mag) Surface Threshold Offset Overrun Length
16 98 ft / 30 m 4,110 ft / 1,253 m 152.71° 158.29° Asphalt 0 ft / 0 m 112 ft / 34 m
34 98 ft / 30 m 4,110 ft / 1,253 m 332.71° 338.29° Asphalt 0 ft / 0 m 105 ft / 32 m

GCGM

Details ICAO GCGM (GMZ)
Name La Gomera
Region Canary Islands
Timezone Atlantic/Canary (UTC+1.0)
Stats Elevation 715 ft / 218 m (AMSL)
Location 28.029627° -17.214603°
Runways 1
Magnetic Variation 5.308° W

METAR

GCGM 221400Z VRB03KT 9999 BKN030 21/14 Q1018 RMK R09/12003KT 050V170 ARP/15003KT 120V190

Decode

TAF

TAF GCGM 220800Z 2209/2309 18005KT 9999 SCT025 TX23/2214Z TN17/2305Z

Decode

Destination Runways

ID Width Length Bearing (true) Bearing (mag) Surface Threshold Offset Overrun Length
09 98 ft / 30 m 4,914 ft / 1,498 m 81.17° 86.48° Asphalt 0 ft / 0 m 0 ft / 0 m
27 98 ft / 30 m 4,914 ft / 1,498 m 261.18° 266.49° Asphalt 0 ft / 0 m 0 ft / 0 m

Popular Alternatives